This is the latest recevied weather packets stored in our database for station/object DK4DAX-2. If no packets are shown the sender has not sent any weather packets the latest 10 day(s).
| Time | Temp. | Humidity | Pressure | Rain* | Wind** | Luminosity | Snow |
|---|---|---|---|---|---|---|---|
| 1778011203 | 13.33° C | 94% | 999.7 hPa | 0 mm | - | - | - |
| 1778010302 | 13.33° C | 93% | 999.7 hPa | 0 mm | - | - | - |
| 1778009403 | 13.33° C | 93% | 999.7 hPa | 0 mm | - | - | - |
| 1778008503 | 13.89° C | 91% | 999.5 hPa | 0 mm | - | - | - |
| 1778007603 | 14.44° C | 91% | 999.7 hPa | 0 mm | - | - | - |
| 1778006703 | 14.44° C | 90% | 999.5 hPa | 0 mm | - | - | - |
| 1778005803 | 14.44° C | 89% | 999.5 hPa | 0 mm | - | - | - |
| 1778004902 | 14.44° C | 87% | 999.7 hPa | 0 mm | - | - | - |
| 1778004003 | 15° C | 86% | 999.6 hPa | 0 mm | - | - | - |
| 1778003103 | 15° C | 85% | 999.5 hPa | 0 mm | - | - | - |
| 1778002202 | 15° C | 83% | 999.7 hPa | 0 mm | - | - | - |
| 1778001303 | 15.56° C | 81% | 999.7 hPa | 0 mm | - | - | - |
| 1778000403 | 15.56° C | 80% | 999.5 hPa | 0 mm | - | - | - |
| 1777999502 | 16.11° C | 80% | 999.6 hPa | 0 mm | - | - | - |
| 1777998603 | 16.11° C | 79% | 999.4 hPa | 0 mm | - | - | - |
| 1777997703 | 16.11° C | 76% | 999.9 hPa | 0 mm | - | - | - |
| 1777996804 | 16.67° C | 76% | 999.8 hPa | 0 mm | - | - | - |
| 1777995903 | 16.67° C | 75% | 999.8 hPa | 0 mm | - | - | - |
| 1777995002 | 16.67° C | 74% | 999.8 hPa | 0 mm | - | - | - |
| 1777994103 | 17.22° C | 72% | 999.8 hPa | 0 mm | - | - | - |
| 1777993203 | 17.78° C | 71% | 999.9 hPa | 0 mm | - | - | - |
| 1777992302 | 17.78° C | 71% | 999.7 hPa | 0 mm | - | - | - |
| 1777991403 | 18.33° C | 70% | 1000 hPa | 0 mm | - | - | - |
| 1777990503 | 18.89° C | 67% | 1000 hPa | 0 mm | - | - | - |
| 1777989603 | 19.44° C | 65% | 1000.3 hPa | 0 mm | - | - | - |
* Rain latest hour (hover to see other rain measurements)
** Current wind speed in m/s (hover to see current wind gust speed)